�_�ʐ�͌���@�\�w���ɂ��Y���u�C�̈ړ���,,,,,,,,
�@,Time,Lat.,,Long.,,Direction,Speed,
Date(yy/mm/dd),(hh:mm),(deg),(min),(deg),(min),(deg),(m/s),(knots)
2004/6/24,9:35,36,46.008,137,13.434,,,
2004/6/24,9:40,36,46.032,137,13.404,305.2,0.26,0.5
2004/6/24,9:45,36,46.08,137,13.38,333.4,0.33,0.64
2004/6/24,9:50,36,46.08,137,13.32,270,0.37,0.72
2004/6/24,9:55,36,46.08,137,13.278,270,0.26,0.5
2004/6/24,10:00,36,46.14,137,13.206,309.8,0.58,1.12
2004/6/24,10:05,36,46.146,137,13.146,275.7,0.37,0.72
2004/6/24,10:10,36,46.164,137,13.08,285.3,0.42,0.82
2004/6/24,10:15,36,46.176,137,13.014,280.3,0.41,0.8
2004/6/24,10:20,36,46.182,137,12.948,275.2,0.41,0.8
2004/6/24,10:25,36,46.188,137,12.882,275.2,0.41,0.8
2004/6/24,10:30,36,46.206,137,12.816,285.3,0.42,0.82
2004/6/24,10:35,36,46.218,137,12.768,284,0.31,0.59
2004/6/24,10:40,36,46.236,137,12.726,293.2,0.28,0.55
2004/6/24,10:45,36,46.248,137,12.678,284,0.31,0.59
2004/6/24,10:50,36,46.266,137,12.63,290.6,0.32,0.62
2004/6/24,10:55,36,46.266,137,12.57,272.9,0.35,0.69
2004/6/24,11:00,36,46.296,137,12.528,310,0.32,0.61
2004/6/24,11:05,36,46.296,137,12.474,273.2,0.32,0.61
2004/6/24,11:10,36,46.308,137,12.426,288.2,0.29,0.57
2004/6/24,11:15,36,46.332,137,12.378,300.7,0.32,0.63
2004/6/24,11:20,36,46.332,137,12.342,274.9,0.21,0.4
2004/6/24,11:25,36,46.35,137,12.3,298,0.27,0.53
2004/6/24,11:30,36,46.374,137,12.246,297.7,0.36,0.69
2004/6/24,11:35,36,46.392,137,12.204,298,0.27,0.53
2004/6/24,11:40,36,46.398,137,12.15,279.8,0.32,0.62
2004/6/24,11:45,36,46.422,137,12.102,300.7,0.32,0.63
2004/6/24,11:50,36,46.434,137,12.048,286.2,0.33,0.64
2004/6/24,11:55,36,46.416,137,12.012,245.4,0.23,0.44
2004/6/24,12:00,36,46.428,137,11.958,286.2,0.33,0.64


�A,Time,Lat.,,Long.,,Direction,Speed,
Date(yy/mm/dd),(hh:mm),(deg),(min),(deg),(min),(deg),(m/s),(knots)
2004/6/24,13:10,36,46.038,137,13.308,,,
2004/6/24,13:15,36,46.056,137,13.254,292.5,0.35,0.68
2004/6/24,13:20,36,46.074,137,13.212,298.2,0.28,0.55
2004/6/24,13:25,36,46.074,137,13.146,277,0.41,0.8
2004/6/24,13:30,36,46.08,137,13.092,284.6,0.34,0.67
2004/6/24,13:35,36,46.08,137,13.044,279.5,0.3,0.58
2004/6/24,13:40,36,46.068,137,12.996,265.3,0.3,0.58
2004/6/24,13:45,36,46.05,137,12.954,256.7,0.27,0.52
2004/6/24,13:50,36,46.032,137,12.924,251.7,0.2,0.38
2004/6/24,13:55,36,46.026,137,12.864,270.7,0.37,0.72
2004/6/24,14:00,36,46.008,137,12.834,249.4,0.2,0.38
2004/6/24,14:05,36,45.99,137,12.798,252.6,0.23,0.45
2004/6/24,14:15,36,45.966,137,12.732,260.9,0.21,0.4
2004/6/24,14:20,36,45.948,137,12.702,249.4,0.2,0.38
2004/6/24,14:25,36,45.948,137,12.672,282.6,0.19,0.37
2004/6/24,14:30,36,45.96,137,12.66,327.3,0.14,0.27


�B,Time,Lat.,,Long.,,Direction,Speed,
Date(yy/mm/dd),(hh:mm),(deg),(min),(deg),(min),(deg),(m/s),(knots)
2004/6/24,9:35,36,45.972,137,13.536,,,
2004/6/24,9:40,36,45.978,137,13.542,18.2,0.04,0.08
2004/6/24,9:45,36,46.008,137,13.53,338.2,0.2,0.39
2004/6/24,9:50,36,46.038,137,13.518,338.2,0.2,0.39
2004/6/24,9:55,36,46.08,137,13.494,330.3,0.3,0.58
2004/6/24,10:00,36,46.11,137,13.464,315,0.26,0.51
2004/6/24,10:05,36,46.14,137,13.422,305.5,0.32,0.62
2004/6/24,10:10,36,46.17,137,13.374,302,0.35,0.68
2004/6/24,10:15,36,46.206,137,13.32,303.7,0.4,0.78
2004/6/24,10:20,36,46.23,137,13.26,291.8,0.4,0.78
2004/6/24,10:25,36,46.254,137,13.188,288.4,0.47,0.91
2004/6/24,10:30,36,46.278,137,13.122,290,0.43,0.84
2004/6/24,10:35,36,46.284,137,13.044,274.4,0.48,0.94
2004/6/24,10:40,36,46.308,137,12.972,288.4,0.47,0.91
2004/6/24,10:45,36,46.326,137,12.9,284,0.46,0.89
2004/6/24,10:50,36,46.35,137,12.852,296.6,0.33,0.64
2004/6/24,10:55,36,46.374,137,12.804,300.7,0.32,0.63
2004/6/24,11:00,36,46.398,137,12.768,309,0.26,0.51
2004/6/24,11:05,36,46.416,137,12.732,302.2,0.24,0.47
2004/6/24,11:10,36,46.422,137,12.678,279.8,0.32,0.62
2004/6/24,11:15,36,46.44,137,12.642,302.2,0.24,0.47
2004/6/24,11:20,36,46.464,137,12.606,309,0.26,0.51
2004/6/24,11:25,36,46.476,137,12.57,294.1,0.22,0.44
2004/6/24,11:30,36,46.494,137,12.534,302.2,0.24,0.47
2004/6/24,11:35,36,46.518,137,12.492,304.4,0.29,0.57
2004/6/24,11:40,36,46.536,137,12.462,307.5,0.21,0.41
2004/6/24,11:45,36,46.572,137,12.426,319.5,0.32,0.61
2004/6/24,11:50,36,46.578,137,12.396,288.1,0.18,0.34
2004/6/24,11:55,36,46.62,137,12.348,314.8,0.39,0.76


�C,Time,Lat.,,Long.,,Direction,Speed,
Date(yy/mm/dd),(hh:mm),(deg),(min),(deg),(min),(deg),(m/s),(knots)
2004/6/24,13:10,36,46.056,137,13.392,,,
2004/6/24,13:15,36,46.056,137,13.338,274.1,0.32,0.63
2004/6/24,13:20,36,46.098,137,13.32,340.2,0.3,0.58
2004/6/24,13:30,36,46.116,137,13.236,292.1,0.28,0.54
2004/6/24,13:35,36,46.128,137,13.188,292.7,0.32,0.62
2004/6/24,13:40,36,46.116,137,13.134,265.8,0.33,0.65
2004/6/24,13:45,36,46.122,137,13.092,288.5,0.27,0.53
2004/6/24,13:50,36,46.104,137,13.038,259.6,0.34,0.66
2004/6/24,13:55,36,46.11,137,13.002,289.5,0.24,0.46
2004/6/24,14:00,36,46.092,137,12.954,256.8,0.3,0.59
2004/6/24,14:05,36,46.092,137,12.906,278,0.3,0.58
2004/6/24,14:10,36,46.086,137,12.852,270.8,0.33,0.65
2004/6/24,14:15,36,46.068,137,12.822,249.4,0.2,0.38
2004/6/24,14:20,36,46.062,137,12.774,270.9,0.3,0.58
2004/6/24,14:25,36,46.056,137,12.738,271.1,0.22,0.43
2004/6/24,14:30,36,46.05,137,12.696,271,0.26,0.5
2004/6/24,14:35,36,46.05,137,12.648,278,0.3,0.58
2004/6/24,14:40,36,46.038,137,12.618,260,0.19,0.37
